Temp
13 13 13 14 14 15 15 14 15 15 16 16 16 15 13 13 13 12 11 10 10 9 7 6 6 5 4 4 3 3 3 3 3 4 4 4 4 4
14 13 13 13 14 14 14 14 14 14 14 16 16 15 13 13 13 11 10 10 8 8 7 6 5 4 3 2 2 2 2 2 3 3 3 3 3 3
14 14 14 14 13 13 12 12 12 12 12 14 14 14 11 11 11 11 9 7 6 6 5 4 3 1 1 1 1 1 1 1 2 2 2 3 3 2
15 14 14 14 13 13 12 12 11 11 12 12 13 10 9 9 9 8 6 5 5 4 3 3 1 0 0 -0 -0 0 -0 0 1 1 1 2 2 2
15 14 14 14 14 13 13 12 12 11 11 12 13 8 7 7 6 6 5 4 4 2 2 1 -0 -1 -1 -1 -1 -1 -1 -1 -0 0 1 1 1 1
15 15 15 14 14 14 13 12 12 12 12 11 10 7 6 5 5 7 5 4 3 2 1 0 -0 -1 -1 -1 -1 -2 -2 -1 -0 0 1 0 0 0
15 15 14 14 14 14 13 12 12 12 12 10 7 6 5 4 5 6 6 5 3 1 0 1 0 0 0 -1 -1 -2 -2 -1 -0 -0 -0 0 -0 -0
14 15 14 14 13 13 13 13 12 12 10 9 8 7 7 7 6 5 4 3 5 -0 -1 1 0 -0 -0 -0 -1 -3 -3 -1 -1 -1 -1 -1 -1 -1
14 14 14 13 12 12 12 12 12 12 11 11 7 7 8 6 5 3 2 2 3 1 -1 0 1 -0 -0 -0 -1 -3 -3 -2 -2 -2 -2 -2 -2 -2
13 13 13 14 12 12 11 10 10 10 9 10 11 10 8 6 4 3 2 1 -1 -1 -2 -0 1 1 -0 -1 -1 -3 -3 -2 -3 -3 -3 -3 -3 -3
12 12 13 13 13 11 11 8 6 6 6 8 8 8 7 5 5 2 -1 -1 1 1 -2 -2 0 -0 -1 -1 -1 -2 -3 -3 -3 -3 -3 -3 -3 -3
11 12 12 12 12 10 10 6 4 3 4 3 3 2 3 2 1 0 -1 -1 -0 1 -1 -2 -0 -2 -1 -0 -1 -1 -2 -2 -3 -3 -4 -4 -4 -4
12 11 11 11 12 10 9 8 7 2 2 2 0 -0 -1 -2 -2 -2 -2 -2 -2 -1 -2 -3 -4 -3 -3 -2 -2 -2 -2 -2 -2 -2 -3 -3 -3 -4
11 11 11 11 10 9 7 6 3 2 1 -0 -1 -1 -2 -2 -3 -3 -3 -3 -4 -3 -3 -5 -5 -5 -5 -5 -2 -1 -2 -2 -2 -2 -2 -2 -3 -3
8 10 10 10 8 6 5 4 2 0 -0 -1 -1 -2 -2 -3 -4 -4 -4 -4 -4 -5 -5 -5 -6 -5 -6 -6 -5 -4 -3 -2 -2 -2 -2 -3 -3 -3
7 8 9 7 5 4 3 2 -0 0 0 -0 -1 -2 -3 -4 -4 -4 -4 -4 -4 -3 -5 -5 -6 -7 -7 -5 -5 -4 -3 -3 -2 -3 -3 -3 -3 -3
6 5 5 3 3 2 0 -1 -1 -0 -0 -1 -2 -3 -3 -4 -4 -5 -4 -4 -3 -3 -3 -4 -5 -6 -7 -7 -6 -5 -3 -3 -3 -3 -3 -3 -3 -2
4 4 3 2 2 0 -1 -1 -1 -1 -2 -2 -3 -3 -3 -4 -4 -5 -4 -4 -3 -3 -4 -4 -6 -6 -4 -3 -5 -5 -4 -3 -3 -3 -3 -3 -2 -2
4 3 2 2 2 0 -0 -1 -1 -2 -2 -3 -3 -3 -4 -4 -4 -4 -4 -4 -4 -4 -4 -6 -7 -6 -5 -3 -3 -5 -5 -4 -4 -4 -3 -3 -3 -3
4 3 2 2 1 0 -1 -1 -2 -3 -3 -3 -3 -4 -4 -4 -4 -4 -4 -4 -4 -4 -5 -5 -6 -6 -6 -6 -6 -6 -5 -6 -5 -4 -4 -4 -4 -4
2 2 2 1 -0 -1 -2 -3 -3 -3 -4 -4 -4 -4 -4 -4 -4 -4 -4 -5 -5 -5 -5 -4 -6 -7 -9 -10 -8 -4 -4 -4 -6 -6 -6 -6 -4 -3
2 1 1 -0 -1 -2 -3 -3 -3 -4 -4 -4 -5 -4 -4 -4 -4 -5 -5 -5 -5 -5 -6 -6 -7 -8 -8 -7 -5 -5 -5 -4 -5 -4 -5 -6 -6 -4
1 1 -0 -1 -2 -3 -3 -3 -4 -4 -4 -5 -5 -5 -5 -5 -5 -5 -5 -5 -5 -6 -6 -6 -6 -6 -7 -7 -7 -6 -4 -4 -4 -5 -4 -4 -5 -5
Height
708 709 710 713 715 715 716 717 717 716 713 715 717 716 716 715 715 717 718 715 715 714 714 711 710 710 709 709 707 704 702 700 697 693 691 688 685 682
700 702 702 703 704 706 706 707 707 708 706 706 708 709 709 709 710 711 712 711 710 710 710 709 708 706 704 705 703 700 698 695 693 690 687 684 682 680
689 690 691 694 694 694 695 697 698 700 700 699 700 703 703 704 704 706 706 706 705 702 704 705 704 702 700 701 699 697 695 692 689 687 684 681 679 677
675 678 679 683 684 685 686 686 687 689 691 691 693 695 697 697 699 699 701 701 701 701 698 699 699 697 697 695 695 693 691 689 687 684 681 678 676 674
666 665 665 669 671 674 675 676 677 678 680 683 684 687 689 690 694 696 699 699 698 696 693 693 693 694 693 691 690 689 687 685 683 680 678 676 673 670
652 654 656 657 656 659 664 665 667 670 672 675 677 679 683 685 688 693 692 695 697 693 690 691 689 689 688 686 685 683 682 681 679 676 674 672 669 667
642 639 642 644 647 648 650 653 656 659 661 666 673 675 676 679 680 684 686 690 691 688 686 687 686 685 683 682 680 678 678 676 674 672 670 667 664 662
636 631 631 633 637 639 638 642 644 646 649 652 659 664 666 671 673 678 683 687 686 685 684 683 682 681 678 677 676 674 673 671 669 667 665 663 661 658
623 624 623 624 626 629 630 631 636 640 641 641 646 651 656 660 665 671 678 682 683 683 683 679 678 677 674 671 670 669 667 666 665 663 660 658 655 652
616 612 614 616 617 618 617 621 625 629 633 636 637 643 649 653 658 663 671 678 680 680 680 679 675 672 669 666 664 663 663 661 659 657 655 653 650 647
608 599 601 603 604 606 610 610 616 623 629 629 636 641 646 650 653 658 667 673 675 676 677 677 672 669 665 661 661 661 659 656 655 653 650 647 644 641
599 594 593 593 595 598 602 603 611 614 619 626 634 641 645 650 654 658 662 666 672 673 674 676 671 670 662 658 658 657 655 652 649 647 644 642 639 636
591 588 585 587 589 590 595 593 599 607 617 626 633 637 643 650 656 658 659 662 668 670 671 673 671 670 667 661 655 653 651 647 644 642 639 637 634 631
587 583 580 580 582 585 590 593 598 607 615 624 632 637 640 648 656 657 658 662 666 668 669 669 671 669 667 663 655 649 647 643 640 637 634 631 628 625
582 578 575 575 575 580 586 589 592 603 610 623 627 634 640 645 654 654 657 662 664 665 666 667 667 666 665 661 655 648 644 638 636 633 630 626 622 619
576 573 572 572 575 579 588 592 594 599 609 615 622 634 642 643 651 652 657 661 663 662 663 663 662 661 659 656 652 644 642 639 632 629 625 620 616 612
575 575 574 573 575 583 586 589 594 597 610 612 622 631 640 642 648 651 656 659 661 660 660 661 659 656 652 649 646 640 637 633 629 625 621 613 608 604
571 575 574 572 572 577 581 587 594 597 605 608 621 631 635 639 644 651 655 658 657 657 659 659 656 652 647 641 638 637 634 629 624 619 615 608 598 596
568 569 572 571 571 574 575 581 587 596 602 608 618 628 632 636 644 649 653 654 655 656 657 656 654 653 647 641 637 634 631 625 619 613 608 602 595 587
566 567 570 571 572 574 575 579 586 593 602 609 617 625 628 635 642 646 650 652 653 655 654 653 652 651 649 645 642 630 626 620 615 608 601 596 590 582
571 570 571 571 574 577 578 582 587 594 602 608 618 622 628 634 640 644 648 649 652 653 652 650 650 647 645 642 638 625 616 615 611 606 599 593 584 575
573 572 571 572 574 577 580 584 591 596 604 611 616 620 628 633 638 642 645 648 651 651 650 649 647 645 643 640 632 624 616 608 604 597 592 589 584 575
572 569 568 569 572 575 578 584 589 597 603 609 614 621 628 633 637 641 644 648 650 649 649 648 645 644 641 636 631 625 615 606 598 589 585 582 577 571
Wind_Speed
33 36 35 33 31 31 29 27 17 11 12 18 19 16 16 16 17 16 13 16 19 16 15 16 16 17 18 16 18 19 20 21 21 21 21 20 19 20
30 30 32 32 31 29 30 29 28 21 11 19 20 19 18 16 17 15 17 17 18 17 17 17 18 18 15 16 16 17 16 16 17 18 18 18 18 19
31 31 33 31 30 30 30 28 26 25 12 20 23 17 18 19 19 18 19 13 10 16 15 15 15 11 12 13 12 13 15 15 15 16 17 18 19 20
34 32 33 30 31 30 27 27 28 27 22 13 19 16 15 18 18 18 14 11 8 11 13 15 8 11 10 9 13 14 15 15 16 16 17 19 20 21
34 34 36 32 31 30 28 26 27 26 26 20 13 12 16 15 14 12 12 10 9 12 10 8 9 9 11 13 14 14 15 16 16 16 17 18 20 21
35 35 36 35 37 33 30 31 27 23 21 19 14 9 9 12 11 14 11 11 11 8 7 9 10 13 14 13 14 14 15 15 14 15 17 19 20 21
34 34 37 38 41 36 31 30 27 24 19 16 8 7 8 8 14 10 10 9 9 7 6 9 11 11 10 12 13 12 14 14 13 16 18 20 19 21
34 34 36 39 44 43 42 35 30 27 24 17 12 9 15 13 12 11 8 6 3 6 5 10 10 11 11 12 13 16 15 12 15 17 20 20 22 23
33 32 31 32 36 37 45 39 32 31 27 28 17 17 16 19 14 12 10 8 6 4 5 11 7 11 11 13 15 16 14 14 16 19 19 22 23 23
35 31 30 31 32 36 32 31 32 32 31 25 23 23 19 18 16 11 11 8 4 5 4 5 6 12 13 14 12 12 12 15 18 19 21 22 21 20
35 32 31 34 35 39 30 28 25 21 19 19 17 18 18 18 16 15 12 9 4 6 7 8 8 14 14 10 8 10 15 17 17 19 21 19 18 18
27 29 33 37 32 36 32 27 22 23 27 24 21 19 17 15 14 9 15 11 5 4 7 5 7 9 6 5 7 15 14 13 17 19 19 17 17 16
25 25 25 30 35 37 39 35 30 31 25 26 23 21 16 14 10 10 12 10 8 6 5 4 4 6 5 9 13 15 13 16 17 17 14 16 17 17
27 25 27 31 30 37 35 25 27 29 28 23 20 17 17 14 11 11 10 9 7 6 4 5 5 6 8 12 9 12 17 18 16 14 15 19 19 17
25 26 28 30 29 33 26 34 37 30 28 23 17 15 16 15 13 12 9 7 8 8 8 9 10 10 10 12 16 22 16 15 19 14 19 19 20 18
25 25 23 20 26 24 28 31 25 28 27 24 22 16 14 17 12 10 8 7 6 5 8 9 10 10 14 19 19 22 17 11 16 20 20 22 21 18
15 8 15 19 21 21 22 19 24 28 23 24 22 19 16 16 12 11 8 7 6 4 5 6 7 12 18 21 16 14 14 16 18 20 21 23 22 19
10 9 12 17 21 22 21 21 20 23 25 28 21 19 18 17 14 11 8 7 6 4 5 6 8 13 9 8 14 14 14 17 19 21 21 21 24 21
10 13 13 17 18 20 22 24 22 22 27 26 22 19 19 16 15 12 9 7 5 4 4 4 5 7 6 6 9 13 16 20 22 22 20 21 24 27
4 9 11 13 14 18 21 22 23 26 23 23 21 20 19 17 14 11 9 6 4 3 4 4 5 5 4 5 6 17 18 21 19 22 23 23 26 31
8 8 11 13 13 14 17 19 22 24 23 23 21 21 18 15 13 10 8 6 3 3 3 4 5 9 10 10 7 16 21 15 19 23 25 22 20 17
11 8 9 13 16 18 19 22 23 23 22 22 22 20 16 14 13 12 9 6 4 2 4 6 6 7 5 6 11 18 21 23 24 18 19 21 16 5
18 13 13 15 18 22 26 25 24 24 23 25 24 19 17 14 12 10 8 5 2 1 3 5 7 7 8 11 15 17 21 22 24 27 19 15 16 24
Wind_Direction
231 230 229 232 232 231 229 226 226 246 248 253 253 250 236 246 244 245 253 264 284 283 276 276 286 293 300 306 307 306 305 303 301 299 296 296 308 307
230 231 231 231 231 230 227 226 224 232 250 246 249 245 243 240 245 249 259 275 276 279 281 286 289 293 299 301 302 302 301 301 299 297 296 300 302 302
230 228 232 230 228 226 225 224 224 222 236 249 247 243 234 235 239 251 255 254 257 271 271 285 291 292 300 296 299 299 297 298 295 296 298 297 298 299
230 228 232 229 229 228 223 222 222 221 223 238 235 219 224 231 236 239 241 239 247 268 279 291 276 294 286 280 294 293 295 294 290 294 297 298 298 299
234 228 232 226 228 228 223 223 224 219 218 225 223 205 222 221 225 229 230 240 250 263 294 276 277 276 274 279 288 288 294 291 290 292 295 299 300 297
235 234 234 229 227 224 221 222 219 212 208 218 213 190 206 220 215 232 228 238 254 268 275 267 263 273 273 271 281 287 292 288 289 292 296 299 298 297
243 235 234 232 233 224 217 221 213 213 200 200 196 186 184 178 206 215 223 235 256 257 265 269 271 270 270 277 280 286 288 286 284 293 296 297 296 298
252 242 238 236 234 229 222 224 215 203 197 193 195 204 201 201 191 194 203 222 254 231 274 277 261 262 273 279 284 289 282 275 286 294 297 294 294 295
248 251 244 239 235 229 229 225 220 225 218 208 191 200 184 196 177 175 190 212 231 224 275 281 246 263 282 284 287 278 265 272 288 296 294 295 293 292
253 246 243 244 235 224 217 212 213 215 222 225 221 217 208 185 176 170 178 191 205 232 228 267 270 281 291 290 274 260 267 281 287 290 294 296 293 291
255 238 237 240 238 224 208 182 179 191 204 193 199 195 182 175 175 157 155 165 207 220 213 265 285 304 299 278 252 265 288 292 290 292 293 289 290 293
264 252 245 239 239 219 204 177 168 174 169 158 152 144 153 157 156 160 166 161 180 223 202 249 294 335 318 273 271 296 296 294 294 294 292 284 290 292
276 264 248 246 234 220 208 197 190 168 154 153 147 147 145 150 161 160 164 159 184 230 184 228 278 302 284 300 304 297 294 307 303 298 286 289 285 283
278 271 252 249 237 221 196 181 159 151 149 147 147 151 152 160 166 164 168 178 203 214 207 223 248 267 283 295 284 303 309 303 298 295 289 296 292 287
281 272 257 247 223 189 180 165 153 157 152 154 149 151 161 153 158 154 166 202 227 232 234 237 246 263 266 266 280 297 315 304 297 287 298 298 297 294
308 284 250 212 172 164 154 153 155 157 160 149 139 145 154 144 155 153 165 195 223 222 228 254 249 257 269 271 278 286 294 287 297 301 301 299 296 289
287 225 153 141 140 152 151 152 153 148 153 139 138 148 157 149 152 159 178 192 224 217 242 252 272 282 274 269 278 272 279 287 297 300 303 298 296 290
202 188 172 164 164 164 160 155 161 152 149 142 147 157 154 150 150 169 181 201 210 225 263 288 313 324 312 286 242 264 280 295 301 303 299 292 293 293
210 186 190 184 180 177 167 167 164 156 150 144 149 153 148 143 159 172 181 191 203 235 267 288 305 323 325 318 297 258 279 298 301 298 294 294 290 290
243 189 198 195 188 182 171 163 150 144 146 147 146 152 144 151 166 169 179 181 197 242 279 278 287 314 311 317 309 291 290 277 286 296 299 299 292 294
309 214 208 195 186 176 162 154 148 146 151 147 150 145 147 158 162 164 163 160 196 247 293 306 321 310 299 295 274 289 300 291 279 284 292 297 296 298
292 265 229 202 180 163 154 148 147 150 151 149 147 146 155 160 159 157 157 165 200 260 298 311 327 332 299 276 293 298 306 316 320 304 285 266 263 288
297 271 245 210 183 168 163 161 157 158 157 154 149 152 157 155 151 150 147 163 170 284 339 344 349 332 297 283 294 303 311 315 323 324 316 306 284 278